Location: Absher
(46.5583°N, 107.9840°W)
Time: 19:17:39
(UTC+00:00)

QB50P2 - Pass Details

Date: 08 April 2023
Orbit: 581 x 596 km, 98.0° (Epoch: 31 May)

Event Time Altitude Azimuth Distance (km) Brightness Sun altitude
Rises 10:23:24 0° 357° (N) 2,827 ? -21.8°
Reaches altitude 10° 10:26:15 10° 336° (NNW) 1,918 ? -21.4°
Enters shadow 10:28:08 15° 310° (NW) 1,586 ? -21.1°
